Location: Henham
(51.9333°N, 0.2500°E)
Time: 23:18:52
(UTC+00:00)

Cosmos 2100 Rocket - Pass Details

Date: 23 October 2019
Orbit: 955 x 1002 km, 82.9° (Epoch: 16 November)

Event Time Altitude Azimuth Distance (km) Brightness Sun altitude
Rises 18:37:12 0° 349° (N) 3,670 7.2 -17.3°
Reaches altitude 10° 18:39:44 10° 350° (N) 2,713 6.5 -17.7°
Maximum altitude 18:45:57 86° 80° (E) 968 3.9 -18.7°
Drops below altitude 10° 18:52:06 10° 170° (S) 2,679 6.1 -19.6°
Sets 18:54:34 0° 171° (S) 3,621 6.8 -20.0°
